Climatologie pour Saint-Brevin les Pins
Jour • Résumé pour février 15, 2017 Système :  Métrique    Anglais   Mixte
« - 1 jour
+ 1 jour »
Jour Semaine Mois Année Personnalisé
  Maximum : Minimum : Moyenne :
Température sous abri : -17.8 °C -14.5 °C -12.2 °C
Point de rosée : -17.8 °C -14.7 °C -13 °C
Humidité : Humidity % 70 % 91 %
Vitesse du vent : 0 km/h 0 km/h 7.7 km/h
Rafale : 0 km/h - -
Direction :- - SSW
Pression : 0 hPa 34682.8 hPa -
Précipitations : 38.1 mm    
Historical Graphs
 
 
Tableau de données pour février 15, 2017
Heure Tempé Pt rosée Pression Vent Vitesse Rafale Humidité Taux pluie (/hr) Soleil
-17.8 °C -17.8 °C 0 hPa Calm     Humidity % 0 mm SolarRadiationWatts/m^2 W/m2 Conditions
00:00 -12.9 °C -13.3 °C 34682.8 hPa SE 7.7 km/h 12.9 km/h 95 % 0 mm 0 W/m2
00:05 -12.9 °C -13.3 °C 34682.8 hPa East 2.6 km/h 12.9 km/h 95 % 0 mm 0 W/m2
00:10 -12.9 °C -13.3 °C 34682.8 hPa ESE 12.9 km/h 12.9 km/h 95 % 0 mm 0 W/m2
00:15 -12.8 °C -13.2 °C 34682.8 hPa ESE 12.9 km/h 18.2 km/h 96 % 0 mm 0 W/m2
00:20 -12.8 °C -13.2 °C 34682.8 hPa SE 7.7 km/h 18.2 km/h 95 % 0 mm 0 W/m2
00:30 -12.8 °C -13.2 °C 34682.8 hPa SE 5.1 km/h 18.2 km/h 95 % 0 mm 0 W/m2
00:40 -12.8 °C -13.3 °C 34682.8 hPa ESE 2.6 km/h 20.8 km/h 95 % 0 mm 0 W/m2
00:45 -12.9 °C -13.3 °C 34682.8 hPa SE 12.9 km/h 20.8 km/h 95 % 0 mm 0 W/m2
00:55 -12.9 °C -13.3 °C 34682.8 hPa SE 12.9 km/h 23.3 km/h 95 % 0 mm 0 W/m2
01:00 -12.8 °C -13.3 °C 34682.8 hPa SE 7.7 km/h 23.3 km/h 95 % 0 mm 0 W/m2
01:10 -12.9 °C -13.3 °C 34682.8 hPa ESE 7.7 km/h 20.8 km/h 95 % 0 mm 0 W/m2
01:15 -12.9 °C -13.3 °C 34693 hPa SE 7.7 km/h 20.8 km/h 95 % 0 mm 0 W/m2
01:25 -13 °C -13.4 °C 34693 hPa SE 2.6 km/h 18.2 km/h 95 % 0 mm 0 W/m2
01:30 -13 °C -13.4 °C 34693 hPa SE 7.7 km/h 18.2 km/h 95 % 0 mm 0 W/m2
01:40 -13.1 °C -13.4 °C 34693 hPa East 12.9 km/h 15.6 km/h 96 % 0 mm 0 W/m2
01:45 -13.1 °C -13.4 °C 34693 hPa SE 7.7 km/h 18.2 km/h 96 % 0 mm 0 W/m2
01:55 -13.1 °C -13.4 °C 34693 hPa ESE 7.7 km/h 18.2 km/h 96 % 0 mm 0 W/m2
02:00 -13.1 °C -13.4 °C 34693 hPa SE 5.1 km/h 18.2 km/h 96 % 0 mm 0 W/m2
02:10 -12.9 °C -13.3 °C 34682.8 hPa SSE 15.6 km/h 15.6 km/h 96 % 0 mm 0 W/m2
02:15 -12.9 °C -13.2 °C 34693 hPa SE 15.6 km/h 18.2 km/h 96 % 0 mm 0 W/m2
02:25 -12.9 °C -13.3 °C 34693 hPa SE 7.7 km/h 20.8 km/h 96 % 0 mm 0 W/m2
02:30 -12.9 °C -13.2 °C 34693 hPa SE 7.7 km/h 20.8 km/h 96 % 0 mm 0 W/m2
02:40 -12.9 °C -13.2 °C 34693 hPa SE 12.9 km/h 20.8 km/h 96 % 0 mm 0 W/m2
02:45 -12.9 °C -13.2 °C 34693 hPa SE 2.6 km/h 25.9 km/h 96 % 0 mm 0 W/m2
02:50 -12.9 °C -13.2 °C 34693 hPa SE 5.1 km/h 25.9 km/h 96 % 0 mm 0 W/m2
03:00 -12.8 °C -13.2 °C 34693 hPa South 7.7 km/h 23.3 km/h 96 % 0 mm 0 W/m2
03:10 -12.9 °C -13.2 °C 34693 hPa SSE 10.3 km/h 18.2 km/h 96 % 0 mm 0 W/m2
03:15 -12.9 °C -13.2 °C 34693 hPa SSE 10.3 km/h 23.3 km/h 96 % 0 mm 0 W/m2
03:25 -12.9 °C -13.2 °C 34693 hPa SE 12.9 km/h 23.3 km/h 96 % 0 mm 0 W/m2
03:30 -12.9 °C -13.2 °C 34693 hPa ESE 10.3 km/h 23.3 km/h 96 % 0 mm 0 W/m2
03:40 -12.9 °C -13.2 °C 34693 hPa SE 5.1 km/h 25.9 km/h 96 % 0 mm 0 W/m2
03:45 -12.8 °C -13.2 °C 34693 hPa ESE 12.9 km/h 25.9 km/h 96 % 0 mm 0 W/m2
03:50 -12.8 °C -13.1 °C 34693 hPa South 5.1 km/h 20.8 km/h 96 % 0 mm 0 W/m2
03:55 -12.8 °C -13.2 °C 34693 hPa SE 10.3 km/h 23.3 km/h 95 % 0 mm 0 W/m2
04:00 -12.8 °C -13.2 °C 34693 hPa SSE 10.3 km/h 28.5 km/h 95 % 0 mm 0 W/m2
04:15 -12.7 °C -13 °C 34693 hPa South 23.3 km/h 28.5 km/h 96 % 0 mm 0 W/m2
04:20 -12.7 °C -13.1 °C 34693 hPa South 15.6 km/h 28.5 km/h 95 % 0 mm 0 W/m2
04:25 -12.6 °C -13.1 °C 34693 hPa South 20.8 km/h 28.5 km/h 95 % 0 mm 0 W/m2
04:30 -12.6 °C -13 °C 34693 hPa SSE 15.6 km/h 28.5 km/h 95 % 0 mm 0 W/m2
04:35 -12.6 °C -13 °C 34693 hPa SSE 10.3 km/h 25.9 km/h 95 % 0 mm 0 W/m2
04:40 -12.6 °C -13 °C 34693 hPa South 15.6 km/h 25.9 km/h 95 % 0 mm 0 W/m2
04:45 -12.6 °C -13 °C 34703.1 hPa South 10.3 km/h 23.3 km/h 95 % 0 mm 0 W/m2
04:50 -12.6 °C -13.1 °C 34703.1 hPa South 12.9 km/h 20.8 km/h 95 % 0 mm 0 W/m2
04:55 -12.6 °C -13.1 °C 34703.1 hPa South 7.7 km/h 20.8 km/h 95 % 0 mm 0 W/m2
05:00 -12.6 °C -13.1 °C 34703.1 hPa South 18.2 km/h 28.5 km/h 95 % 0 mm 0 W/m2
05:10 -12.6 °C -13.1 °C 34716.7 hPa South 23.3 km/h 23.3 km/h 94 % 0 mm 0 W/m2
05:15 -12.5 °C -13 °C 34716.7 hPa South 10.3 km/h 31.1 km/h 94 % 0 mm 0 W/m2
05:20 -12.4 °C -12.9 °C 34716.7 hPa South 12.9 km/h 31.1 km/h 94 % 0 mm 0 W/m2
05:25 -12.3 °C -12.8 °C 34716.7 hPa South 15.6 km/h 36.2 km/h 94 % 0 mm 0 W/m2
05:30 -12.3 °C -12.8 °C 34716.7 hPa SSW 28.5 km/h 36.2 km/h 94 % 0 mm 0 W/m2
05:40 -12.3 °C -12.8 °C 34716.7 hPa South 10.3 km/h 44.1 km/h 93 % 0 mm 0 W/m2
05:50 -12.3 °C -12.8 °C 34726.8 hPa SSW 28.5 km/h 33.6 km/h 93 % 0 mm 0 W/m2
06:00 -12.3 °C -12.9 °C 34726.8 hPa SSE 15.6 km/h 41.4 km/h 93 % 0 mm 0 W/m2
06:10 -12.3 °C -12.9 °C 34726.8 hPa South 12.9 km/h 31.1 km/h 93 % 0 mm 0 W/m2
06:15 -12.3 °C -12.9 °C 34740.4 hPa SSE 15.6 km/h 31.1 km/h 93 % 0 mm 0 W/m2
06:20 -12.3 °C -12.9 °C 34740.4 hPa SSE 15.6 km/h 28.5 km/h 93 % 0 mm 0 W/m2
06:30 -12.4 °C -13 °C 34740.4 hPa South 25.9 km/h 31.1 km/h 93 % 0 mm 0 W/m2
06:40 -12.3 °C -12.9 °C 34750.5 hPa SSW 23.3 km/h 28.5 km/h 93 % 0 mm 0 W/m2
06:45 -12.3 °C -12.9 °C 34750.5 hPa South 12.9 km/h 25.9 km/h 93 % 0 mm 0 W/m2
06:50 -12.3 °C -12.9 °C 34750.5 hPa SSE 20.8 km/h 25.9 km/h 93 % 0 mm 0 W/m2
07:00 -12.3 °C -12.8 °C 34760.7 hPa SSW 10.3 km/h 25.9 km/h 93 % 0 mm 0 W/m2
07:05 -12.3 °C -12.8 °C 34760.7 hPa SSW 5.1 km/h 25.9 km/h 93 % 0 mm 0 W/m2
07:10 -12.3 °C -12.8 °C 34760.7 hPa South 18.2 km/h 28.5 km/h 93 % 0 mm 0 W/m2
07:15 -12.3 °C -12.9 °C 34760.7 hPa SSE 20.8 km/h 28.5 km/h 93 % 0 mm 0 W/m2
07:25 -12.3 °C -12.9 °C 34774.2 hPa SSW 10.3 km/h 36.2 km/h 93 % 0 mm 0 W/m2
07:30 -12.3 °C -12.8 °C 34774.2 hPa SSW 18.2 km/h 36.2 km/h 94 % 0 mm 0 W/m2
07:40 -12.4 °C -12.9 °C 34784.4 hPa SSW 10.3 km/h 25.9 km/h 94 % 0 mm 0 W/m2
07:45 -12.4 °C -12.9 °C 34784.4 hPa SSW 23.3 km/h 28.5 km/h 94 % 0 mm 0 W/m2
07:50 -12.4 °C -12.9 °C 34774.2 hPa SSW 10.3 km/h 28.5 km/h 94 % 0 mm 0 W/m2
07:55 -12.4 °C -12.9 °C 34784.4 hPa SSW 12.9 km/h 23.3 km/h 94 % 0 mm 0 W/m2
08:00 -12.4 °C -12.8 °C 34784.4 hPa South 18.2 km/h 18.2 km/h 95 % 0 mm 0 W/m2
08:10 -12.4 °C -12.8 °C 34784.4 hPa SSW 10.3 km/h 20.8 km/h 95 % 0 mm 0 W/m2
08:15 -12.4 °C -12.8 °C 34797.9 hPa SSW 10.3 km/h 18.2 km/h 95 % 0 mm 5 W/m2
08:25 -12.4 °C -12.9 °C 34797.9 hPa SW 12.9 km/h 18.2 km/h 95 % 0 mm 12 W/m2
08:30 -12.4 °C -12.9 °C 34797.9 hPa South 15.6 km/h 18.2 km/h 95 % 0 mm 21 W/m2
08:40 -12.4 °C -12.8 °C 34808.1 hPa SSW 10.3 km/h 20.8 km/h 95 % 0 mm 28 W/m2
08:45 -12.4 °C -12.8 °C 34808.1 hPa SSW 12.9 km/h 20.8 km/h 95 % 0 mm 16 W/m2
08:50 -12.4 °C -12.8 °C 34808.1 hPa SSW 10.3 km/h 20.8 km/h 95 % 0 mm 16 W/m2
08:55 -12.4 °C -12.8 °C 34818.2 hPa SSW 7.7 km/h 18.2 km/h 95 % 0 mm 14 W/m2
09:00 -12.3 °C -12.7 °C 34818.2 hPa SSW 7.7 km/h 18.2 km/h 96 % 0 mm 9 W/m2
09:10 -12.3 °C -12.8 °C 34818.2 hPa Calm   15.6 km/h 95 % 7.62 mm 9 W/m2
09:15 -12.4 °C -12.7 °C 34818.2 hPa SE 2.6 km/h 15.6 km/h 96 % 20.32 mm 18 W/m2
09:25 -12.5 °C -12.8 °C 34808.1 hPa Calm   12.9 km/h 96 % 38.1 mm 21 W/m2
09:30 -12.5 °C -12.8 °C 34808.1 hPa South 7.7 km/h 12.9 km/h 96 % 38.1 mm 69 W/m2
09:40 -12.4 °C -12.7 °C 34808.1 hPa SE 5.1 km/h 15.6 km/h 97 % 38.1 mm 104 W/m2
09:45 -12.3 °C -12.5 °C 34818.2 hPa SE 12.9 km/h 12.9 km/h 97 % 38.1 mm 91 W/m2
09:55 -12.1 °C -12.3 °C 34818.2 hPa SSE 2.6 km/h 12.9 km/h 97 % 38.1 mm 35 W/m2
10:00 -12.1 °C -12.3 °C 34831.8 hPa Calm   12.9 km/h 97 % 38.1 mm 37 W/m2
10:10 -12 °C -12.3 °C 34831.8 hPa Calm   7.7 km/h 97 % 25.4 mm 37 W/m2
10:15 -12 °C -12.3 °C 34831.8 hPa Calm   7.7 km/h 97 % 12.7 mm 39 W/m2
10:25 -11.8 °C -12 °C 34831.8 hPa SSE 7.7 km/h 10.3 km/h 97 % 0 mm 288 W/m2
10:30 -11.7 °C -12 °C 34841.9 hPa SSW 7.7 km/h 12.9 km/h 96 % 0 mm 299 W/m2
10:40 -11.4 °C -11.8 °C 34841.9 hPa South 5.1 km/h 15.6 km/h 95 % 0 mm 323 W/m2
10:45 -11.3 °C -11.8 °C 34841.9 hPa South 7.7 km/h 15.6 km/h 94 % 0 mm 336 W/m2
10:50 -11.2 °C -11.8 °C 34852.1 hPa South 7.7 km/h 15.6 km/h 94 % 0 mm 339 W/m2
10:55 -11.2 °C -11.8 °C 34852.1 hPa South 10.3 km/h 15.6 km/h 93 % 0 mm 353 W/m2
11:00 -11.1 °C -11.8 °C 34852.1 hPa South 7.7 km/h 18.2 km/h 92 % 0 mm 364 W/m2
11:10 -10.8 °C -11.6 °C 34852.1 hPa SSW 10.3 km/h 18.2 km/h 92 % 0 mm 381 W/m2
11:15 -10.8 °C -11.7 °C 34852.1 hPa SSE 10.3 km/h 18.2 km/h 90 % 0 mm 388 W/m2
11:25 -10.7 °C -11.6 °C 34852.1 hPa South 7.7 km/h 18.2 km/h 89 % 0 mm 406 W/m2
11:30 -10.6 °C -11.7 °C 34852.1 hPa South 7.7 km/h 18.2 km/h 88 % 0 mm 417 W/m2
11:40 -10.4 °C -11.7 °C 34865.6 hPa SW 18.2 km/h 18.2 km/h 87 % 0 mm 424 W/m2
11:45 -10.4 °C -11.6 °C 34865.6 hPa SSE 12.9 km/h 20.8 km/h 87 % 0 mm 427 W/m2
11:50 -10.3 °C -11.6 °C 34865.6 hPa SSE 5.1 km/h 20.8 km/h 86 % 0 mm 443 W/m2
11:55 -10.3 °C -11.8 °C 34865.6 hPa SSW 7.7 km/h 18.2 km/h 84 % 0 mm 446 W/m2
12:00 -10.2 °C -11.7 °C 34875.8 hPa South 10.3 km/h 18.2 km/h 84 % 0 mm 457 W/m2
12:10 -10.3 °C -11.9 °C 34875.8 hPa SW 12.9 km/h 20.8 km/h 82 % 0 mm 466 W/m2
12:15 -10.2 °C -11.7 °C 34875.8 hPa SSW 10.3 km/h 18.2 km/h 84 % 0 mm 473 W/m2
12:20 -10.2 °C -11.8 °C 34875.8 hPa SSW 12.9 km/h 18.2 km/h 82 % 0 mm 476 W/m2
12:25 -10.3 °C -11.9 °C 34875.8 hPa WSW 10.3 km/h 20.8 km/h 82 % 0 mm 482 W/m2
12:35 -10.1 °C -11.8 °C 34875.8 hPa WSW 7.7 km/h 23.3 km/h 82 % 0 mm 485 W/m2
12:40 -10.1 °C -11.9 °C 34875.8 hPa SSW 7.7 km/h 23.3 km/h 81 % 0 mm 489 W/m2
12:45 -10.1 °C -11.9 °C 34875.8 hPa South 18.2 km/h 23.3 km/h 80 % 0 mm 494 W/m2
12:55 -10.2 °C -12.1 °C 34875.8 hPa South 10.3 km/h 23.3 km/h 80 % 0 mm 497 W/m2
13:00 -10.2 °C -12.2 °C 34875.8 hPa SSW 7.7 km/h 25.9 km/h 79 % 0 mm 497 W/m2
13:10 -10.1 °C -11.9 °C 34875.8 hPa SW 15.6 km/h 20.8 km/h 80 % 0 mm 503 W/m2
13:15 -10.1 °C -11.8 °C 34875.8 hPa SW 15.6 km/h 25.9 km/h 81 % 0 mm 510 W/m2
13:25 -10.1 °C -12 °C 34875.8 hPa SSW 12.9 km/h 20.8 km/h 80 % 0 mm 471 W/m2
13:30 -10.2 °C -12.2 °C 34875.8 hPa South 5.1 km/h 18.2 km/h 78 % 0 mm 482 W/m2
13:40 -9.8 °C -12.1 °C 34875.8 hPa WSW 7.7 km/h 23.3 km/h 76 % 0 mm 485 W/m2
13:50 -9.8 °C -12.1 °C 34875.8 hPa SW 5.1 km/h 12.9 km/h 76 % 0 mm 482 W/m2
14:00 -9.7 °C -12.2 °C 34875.8 hPa West 7.7 km/h 18.2 km/h 75 % 0 mm 485 W/m2
14:10 -9.7 °C -12.1 °C 34875.8 hPa WSW 12.9 km/h 18.2 km/h 76 % 0 mm 480 W/m2
14:15 -9.8 °C -12.2 °C 34875.8 hPa WSW 10.3 km/h 20.8 km/h 75 % 0 mm 480 W/m2
14:25 -9.9 °C -12.1 °C 34875.8 hPa Calm   18.2 km/h 78 % 0 mm 459 W/m2
14:30 -9.9 °C -12.4 °C 34875.8 hPa WSW 10.3 km/h 18.2 km/h 75 % 0 mm 462 W/m2
14:35 -9.9 °C -12.4 °C 34875.8 hPa WNW 15.6 km/h 18.2 km/h 75 % 0 mm 454 W/m2
14:40 -9.9 °C -12.2 °C 34875.8 hPa SW 10.3 km/h 18.2 km/h 76 % 0 mm 461 W/m2
14:45 -9.8 °C -12.3 °C 34875.8 hPa SW 5.1 km/h 18.2 km/h 74 % 0 mm 432 W/m2
14:50 -9.9 °C -12.4 °C 34875.8 hPa WSW 10.3 km/h 20.8 km/h 74 % 0 mm 376 W/m2
14:55 -9.9 °C -12.3 °C 34875.8 hPa West 10.3 km/h 20.8 km/h 75 % 0 mm 466 W/m2
15:00 -9.9 °C -12.3 °C 34875.8 hPa West 10.3 km/h 20.8 km/h 75 % 0 mm 457 W/m2
15:10 -9.8 °C -12.4 °C 34875.8 hPa WSW 12.9 km/h 18.2 km/h 74 % 0 mm 422 W/m2
15:15 -9.8 °C -12.4 °C 34875.8 hPa West 7.7 km/h 18.2 km/h 74 % 0 mm 417 W/m2
15:20 -9.9 °C -12.6 °C 34875.8 hPa West 10.3 km/h 20.8 km/h 73 % 0 mm 408 W/m2
15:25 -9.8 °C -12.4 °C 34875.8 hPa WSW 12.9 km/h 20.8 km/h 73 % 0 mm 388 W/m2
15:30 -9.8 °C -12.7 °C 34875.8 hPa WSW 7.7 km/h 18.2 km/h 71 % 0 mm 373 W/m2
15:40 -9.9 °C -12.7 °C 34875.8 hPa West 2.6 km/h 18.2 km/h 72 % 0 mm 353 W/m2
15:45 -9.7 °C -12.4 °C 34875.8 hPa WSW 5.1 km/h 18.2 km/h 73 % 0 mm 345 W/m2
15:50 -9.8 °C -12.8 °C 34889.3 hPa WSW 7.7 km/h 18.2 km/h 70 % 0 mm 304 W/m2
15:55 -9.9 °C -12.7 °C 34889.3 hPa WNW 5.1 km/h 18.2 km/h 72 % 0 mm 315 W/m2
16:00 -9.9 °C -12.7 °C 34889.3 hPa West 7.7 km/h 15.6 km/h 72 % 0 mm 339 W/m2
16:05 -10.1 °C -12.8 °C 34889.3 hPa WNW 10.3 km/h 15.6 km/h 72 % 0 mm 146 W/m2
16:15 -10.1 °C -12.6 °C 34889.3 hPa WSW 7.7 km/h 15.6 km/h 74 % 0 mm 197 W/m2
16:20 -10.2 °C -12.6 °C 34889.3 hPa WNW 7.7 km/h 15.6 km/h 75 % 0 mm 155 W/m2
16:25 -10.4 °C -12.7 °C 34889.3 hPa West 7.7 km/h 15.6 km/h 76 % 0 mm 139 W/m2
16:35 -10.7 °C -12.3 °C 34889.3 hPa NW 5.1 km/h 15.6 km/h 83 % 0 mm 207 W/m2
16:40 -10.8 °C -12.2 °C 34899.5 hPa West 10.3 km/h 15.6 km/h 85 % 0 mm 174 W/m2
16:45 -10.8 °C -12.2 °C 34899.5 hPa West 2.6 km/h 15.6 km/h 85 % 0 mm 144 W/m2
16:50 -10.9 °C -12.3 °C 34889.3 hPa West 10.3 km/h 15.6 km/h 85 % 0 mm 65 W/m2
16:55 -11 °C -12.3 °C 34899.5 hPa West 2.6 km/h 15.6 km/h 85 % 0 mm 74 W/m2
17:00 -11 °C -12.4 °C 34899.5 hPa West 5.1 km/h 10.3 km/h 85 % 0 mm 70 W/m2
17:10 -10.9 °C -12.3 °C 34899.5 hPa Calm   10.3 km/h 85 % 0 mm 74 W/m2
17:20 -11.1 °C -12.4 °C 34899.5 hPa West 7.7 km/h 12.9 km/h 86 % 0 mm 69 W/m2
17:25 -11.2 °C -12.4 °C 34899.5 hPa West 7.7 km/h 12.9 km/h 87 % 0 mm 65 W/m2
17:30 -11.3 °C -12.4 °C 34899.5 hPa WSW 5.1 km/h 12.9 km/h 87 % 0 mm 54 W/m2
17:40 -11.4 °C -12.5 °C 34909.7 hPa West 7.7 km/h 12.9 km/h 88 % 0 mm 42 W/m2
17:45 -11.5 °C -12.6 °C 34909.7 hPa West 12.9 km/h 15.6 km/h 88 % 0 mm 39 W/m2
17:50 -11.6 °C -12.6 °C 34899.5 hPa West 5.1 km/h 15.6 km/h 89 % 0 mm 35 W/m2
17:55 -11.7 °C -12.7 °C 34909.7 hPa West 5.1 km/h 15.6 km/h 89 % 0 mm 30 W/m2
18:00 -11.8 °C -12.7 °C 34899.5 hPa West 7.7 km/h 15.6 km/h 90 % 0 mm 26 W/m2
18:10 -12 °C -12.8 °C 34909.7 hPa WSW 5.1 km/h 12.9 km/h 91 % 0 mm 19 W/m2
18:15 -12.1 °C -12.9 °C 34909.7 hPa West 5.1 km/h 15.6 km/h 91 % 0 mm 12 W/m2
18:25 -12.3 °C -13.1 °C 34909.7 hPa West 2.6 km/h 12.9 km/h 92 % 0 mm 5 W/m2
18:30 -12.4 °C -13.1 °C 34909.7 hPa West 10.3 km/h 12.9 km/h 93 % 0 mm 0 W/m2
18:40 -12.8 °C -13.4 °C 34909.7 hPa Calm   10.3 km/h 93 % 0 mm 0 W/m2
18:45 -12.8 °C -13.3 °C 34923.2 hPa Calm   7.7 km/h 94 % 0 mm 0 W/m2
18:50 -13 °C -13.6 °C 34923.2 hPa Calm   7.7 km/h 94 % 0 mm 0 W/m2
18:55 -13.2 °C -13.7 °C 34923.2 hPa Calm     94 % 0 mm 0 W/m2
19:00 -13.2 °C -13.7 °C 34923.2 hPa Calm     95 % 0 mm 0 W/m2
19:10 -13.2 °C -13.6 °C 34923.2 hPa Calm     96 % 0 mm 0 W/m2
19:15 -13.2 °C -13.6 °C 34933.4 hPa Calm     96 % 0 mm 0 W/m2
19:20 -13.3 °C -13.6 °C 34933.4 hPa Calm     96 % 0 mm 0 W/m2
19:25 -13.3 °C -13.7 °C 34933.4 hPa Calm     95 % 0 mm 0 W/m2
19:35 -13.4 °C -13.8 °C 34933.4 hPa Calm     96 % 0 mm 0 W/m2
19:40 -13.5 °C -13.8 °C 34933.4 hPa Calm   10.3 km/h 96 % 0 mm 0 W/m2
19:45 -13.4 °C -13.7 °C 34933.4 hPa Calm   10.3 km/h 96 % 0 mm 0 W/m2
19:55 -13.3 °C -13.7 °C 34933.4 hPa Calm     96 % 0 mm 0 W/m2
20:00 -13.4 °C -13.7 °C 34933.4 hPa Calm     96 % 0 mm 0 W/m2
20:10 -13.5 °C -13.8 °C 34933.4 hPa Calm     96 % 0 mm 0 W/m2
20:15 -13.4 °C -13.7 °C 34933.4 hPa Calm   2.6 km/h 97 % 0 mm 0 W/m2
20:20 -13.5 °C -13.8 °C 34933.4 hPa Calm   2.6 km/h 96 % 0 mm 0 W/m2
20:25 -13.7 °C -14 °C 34933.4 hPa Calm   2.6 km/h 96 % 0 mm 0 W/m2
20:30 -13.9 °C -14.2 °C 34933.4 hPa Calm     96 % 0 mm 0 W/m2
20:40 -14.1 °C -14.3 °C 34933.4 hPa Calm     97 % 0 mm 0 W/m2
20:45 -13.9 °C -14.2 °C 34923.2 hPa Calm     97 % 0 mm 0 W/m2
20:50 -14 °C -14.2 °C 34923.2 hPa Calm     97 % 0 mm 0 W/m2
20:55 -14.1 °C -14.3 °C 34933.4 hPa Calm     97 % 0 mm 0 W/m2
21:05 -14 °C -14.2 °C 34933.4 hPa Calm     97 % 0 mm 0 W/m2
21:10 -14.1 °C -14.3 °C 34933.4 hPa Calm     97 % 0 mm 0 W/m2
21:15 -14.1 °C -14.4 °C 34933.4 hPa Calm     97 % 0 mm 0 W/m2
21:20 -14.1 °C -14.4 °C 34933.4 hPa Calm     97 % 0 mm 0 W/m2
21:25 -14.1 °C -14.3 °C 34933.4 hPa Calm     97 % 0 mm 0 W/m2
21:30 -14.1 °C -14.3 °C 34933.4 hPa Calm     97 % 0 mm 0 W/m2
21:35 -14.1 °C -14.3 °C 34933.4 hPa Calm     97 % 0 mm 0 W/m2
21:40 -14.1 °C -14.3 °C 34933.4 hPa Calm     97 % 0 mm 0 W/m2
21:50 -14.2 °C -14.4 °C 34933.4 hPa Calm     97 % 0 mm 0 W/m2
22:00 -14.2 °C -14.4 °C 34933.4 hPa Calm     97 % 0 mm 0 W/m2
22:10 -14.3 °C -14.6 °C 34933.4 hPa Calm     97 % 0 mm 0 W/m2
22:15 -14.3 °C -14.6 °C 34933.4 hPa Calm     97 % 0 mm 0 W/m2
22:20 -14.4 °C -14.7 °C 34933.4 hPa Calm     97 % 0 mm 0 W/m2
22:25 -14.5 °C -14.7 °C 34933.4 hPa Calm     97 % 0 mm 0 W/m2
22:30 -14.3 °C -14.4 °C 34933.4 hPa Calm     98 % 0 mm 0 W/m2
22:35 -14.3 °C -14.4 °C 34933.4 hPa Calm     98 % 0 mm 0 W/m2
22:40 -14.3 °C -14.6 °C 34933.4 hPa Calm     97 % 0 mm 0 W/m2
22:45 -14.4 °C -14.7 °C 34933.4 hPa Calm     97 % 0 mm 0 W/m2
22:50 -14.4 °C -14.7 °C 34933.4 hPa Calm     97 % 0 mm 0 W/m2
23:00 -14.3 °C -14.6 °C 34923.2 hPa Calm   5.1 km/h 97 % 0 mm 0 W/m2
23:10 -14.2 °C -14.4 °C 34933.4 hPa Calm   2.6 km/h 98 % 0 mm 0 W/m2
23:20 -14.3 °C -14.6 °C 34933.4 hPa Calm     97 % 0 mm 0 W/m2
23:25 -14.3 °C -14.6 °C 34933.4 hPa WSW 2.6 km/h 5.1 km/h 97 % 0 mm 0 W/m2
23:30 -14.3 °C -14.5 °C 34933.4 hPa Calm   5.1 km/h 98 % 0 mm 0 W/m2
23:40 -14.2 °C -14.3 °C 34933.4 hPa Calm   5.1 km/h 98 % 0 mm 0 W/m2
23:50 -14.3 °C -14.4 °C 34933.4 hPa Calm   2.6 km/h 98 % 0 mm 0 W/m2
23:55 -14.3 °C -14.5 °C 34933.4 hPa Calm   2.6 km/h 98 % 0 mm 0 W/m2
Avec l'autorisation de Weather Underground - 1.5 mb